Regional Weather Roundup
Issued by NWS

Home | Current Version | Previous Version | Text Only | Print | Product List | Glossary On
Versions: 1 2 3 4 5 6 7 8 9 10 11 12 13 14 15 16 17 18 19 20 21 22 23 24 25 26 27 28 29 30 31 32 33 34 35 36 37 38 39 40 41 42 43 44 45 46 47 48 49 50
000
ASUS44 KFWD 310810
RWRTX
NORTH TEXAS HOURLY WEATHER ROUNDUP
NATIONAL WEATHER SERVICE FORT WORTH TX
200 AM CST SAT JAN 31 2015

NOTE: "FAIR" INDICATES FEW OR NO CLOUDS BELOW 12,000 FEET WITH NO
SIGNIFICANT WEATHER AND/OR OBSTRUCTIONS TO VISIBILITY.

TXZ118-119-310900-
DALLAS/FORT WORTH METROPLEX

CITY           SKY/WX    TMP DP  RH WIND       PRES   REMARKS
DFW AIRPORT    MOCLDY    49  29  46 SE12      30.26F
DALLAS LOVE    CLOUDY    50  30  46 SE7       30.27F
FTW MEACHAM    MOCLDY    50  30  46 SE10      30.25F
DAL-EXECUTIVE  MOCLDY    49  31  49 SE6       30.25F
FTW-ALLIANCE   MOCLDY    47  29  49 SE8       30.25F
FTW-SPINKS     CLOUDY    48  32  52 SE5       30.26F
ARLINGTON      MOCLDY    50  30  46 E8        30.26F
GRAND PRAIRIE  MOCLDY    49  32  51 E6        30.28F
ADDISON        MOCLDY    49  31  49 E8        30.28S
MESQUITE       MOCLDY    47  32  55 E6        30.28S
LANCASTER      MOCLDY    45  32  60 CALM      30.28F
$$

TXZ091>094-102>105-117-120-121-131>134-310900-
NORTH CENTRAL TEXAS

CITY           SKY/WX    TMP DP  RH WIND       PRES   REMARKS
SHRMAN/DENISON MOCLDY    48  32  55 E10       30.27F
GAINESVILLE    MOCLDY    46  31  56 SE7       30.28S
BOWIE          MOCLDY    45  32  61 SE3       30.23F
BRIDGEPORT     MOCLDY    44  34  68 SE3       30.25F
DECATUR        MOCLDY    44  31  58 E8        30.23F WCI  40
DENTON         CLOUDY    47  31  53 SE7       30.26F
MCKINNEY       MOCLDY    46  31  55 SE5       30.27F
GREENVILLE     CLOUDY    46  32  57 E7        30.28F
ROCKWALL       CLOUDY    47  32  55 E6        30.26F
TERRELL        CLOUDY    49  32  52 E5        30.28F
WAXAHACHIE     MOCLDY    46  34  63 E3        30.28S
CLEBURNE       CLOUDY    48  32  53 E9        30.25F
GRANBURY       CLOUDY    48  35  60 E3        30.25F
$$

TXZ083>090-098>101-113>116-127>130-139>142-154-155-310900-
WESTERN NORTH TEXAS

CITY           SKY/WX    TMP DP  RH WIND       PRES   REMARKS
WICHITA FALLS  CLOUDY    45  32  60 SE7       30.23S
WF-KICKAPOO    CLOUDY   N/A N/A N/A SE6       30.24S
VERNON         CLOUDY    45  30  55 SE5       30.23F
ABILENE        CLOUDY    45  36  70 S7        30.19F
ABILENE-DYESS  CLOUDY    45  37  73 SE8       30.18F
BRECKENRIDGE   CLOUDY    49  33  54 SE8       30.20F
GRAHAM         CLOUDY    47  34  59 SE3       30.21S
MINERAL WELLS  CLOUDY    48  32  53 SE13      30.21F
STEPHENVILLE   CLOUDY    48  32  53 SE6       30.24F
COMANCHE       CLOUDY    46  37  71 SE6       30.21F
BROWNWOOD      CLOUDY    46  34  61 SE5       30.21F
COLEMAN        CLOUDY    47  36  66 SE7       30.19F
BRADY          CLOUDY    46  36  66 SE8       30.17F
$$

TXZ143>147-156>162-174-175-310900-
CENTRAL TEXAS

CITY           SKY/WX    TMP DP  RH WIND       PRES   REMARKS
WACO           MOCLDY    48  34  58 E7        30.24F
WACO-MCGREGOR  CLOUDY    48  30  49 SE10      30.25F
HILLSBORO      CLOUDY    49  32  52 E9        30.24F
CORSICANA      MOCLDY    49  33  54 SE6       30.27F
MEXIA          PTCLDY    45  34  65 CALM      30.25F
HEARNE         PTCLDY    47  34  59 E3        30.26F
CAMERON        MOCLDY    46  36  68 E3        30.24F
TEMPLE         CLOUDY    46  30  53 SE9       30.23F
KILLEEN        MOCLDY    46  35  65 SE10      30.21F
KILLEEN-SKYLRK MOCLDY    48  32  53 SE8       30.21F
FORT HOOD      CLOUDY    47  34  61 SE8       30.22F
GATESVILLE     MOCLDY    45  37  76 CALM      30.25F
HAMILTON       CLOUDY    47  34  62 SE8       30.23F
LAMPASAS       MOCLDY    44  37  78 CALM      30.20F
$$

TXZ095>097-106>112-122>126-135>138-148>153-164>167-310900-
EAST TEXAS

CITY           SKY/WX    TMP DP  RH WIND       PRES   REMARKS
PARIS          CLOUDY    45  28  53 E8        30.31F
SULPHUR SPRNGS CLOUDY    47  32  56 E7        30.31F
MOUNT PLEASANT CLOUDY    46  31  57 E7        30.33S
GILMER         MOCLDY    44  31  60 E9        30.29F WCI  39
MINEOLA        MOCLDY    46  32  57 E5        30.29F
TYLER          PTCLDY    47  31  53 SE9       30.28F
LONGVIEW       MOCLDY    46  32  58 E8        30.30S
MARSHALL       CLOUDY    48  36  62 CALM      30.34S
ATHENS         MOCLDY    46  32  57 E3        30.27F
PALESTINE      PTCLDY    47  33  56 E7        30.28F
JACKSONVILLE   PTCLDY    45  33  63 MISG      30.29F
HENDERSON      PTCLDY    45  32  61 E8        30.30F
NACOGDOCHES    CLEAR     45  30  57 E5        30.29F
LUFKIN         CLEAR     43  34  70 E5        30.28F
$$

SUPPLEMENTAL OBSERVATIONS (CENTRAL)

CITY           SKY/WX    TMP DP  RH WIND       PRES   REMARKS
CADDO GRASSLND   N/A     46  30  53 SE6         N/A
PAT MAYSE LAKE   N/A     46  32  57 E6          N/A
GREENVILLE       N/A     46  32  57 E7          N/A
CEDAR HILL       N/A     48  32  53 E2          N/A
PALESTINE        N/A     45  32  61 SE7         N/A
MCGREGOR         N/A     48  32  53 SE9         N/A
TEMPLE           N/A     46  34  61 E6          N/A
$$

SUPPLEMENTAL OBSERVATIONS (WEST)

CITY           SKY/WX    TMP DP  RH WIND       PRES   REMARKS
MILLERS CREEK    N/A     46  36  66 S6          N/A
POSSUM KINGDOM   N/A     46  32  57 SE6         N/A
LBJ GRASSLAND    N/A     45  32  61 E1          N/A
GRANBURY         N/A     46  32  57 SE3         N/A
HAMBY            N/A     45  34  65 SE6         N/A
IVIE RESERVOIR   N/A     46  34  61 SE7         N/A
COLORADO BEND    N/A     45  34  65 E1          N/A
$$

SUPPLEMENTAL OBSERVATIONS (EAST)

CITY           SKY/WX    TMP DP  RH WIND       PRES   REMARKS
TEXARKANA        N/A     43  30  61 E2          N/A
LUFKIN           N/A     45  32  61 MISG        N/A
$$

SUPPLEMENTAL OBSERVATIONS ARE A COLLECTION OF AUTOMATED INSTRUMENTS
THAT ARE MAINTAINED BY A VARIETY OF FEDERAL AND STATE AGENCIES.
CERTAIN ELEMENTS...SUCH AS HUMIDITY VALUES AND SUSTAINED WIND
SPEEDS...MAY BE APPROXIMATED.



USA.gov is the U.S. government's official web portal to all federal, state and local government web resources and services.